Weather History for KMCB - March, 2013

Change the Weather History Date:

Wednesday, March 27, 2013

  Actual Average Record
Temperature  
Mean Temperature 44 °F -  
Max Temperature 62 °F 71 °F 84 °F (1991)
Min Temperature 28 °F 48 °F 24 °F (1955)
Degree Days  
Heating Degree Days 20    
Moisture  
Dew Point 27 °F    
Average Humidity 56    
Maximum Humidity 89    
Minimum Humidity 22    
Precipitation  
Precipitation 0.00 in - - ()
Sea Level Pressure  
Sea Level Pressure 30.36 in    
Wind  
Wind Speed 2 mph (ENE)    
Max Wind Speed 7 mph    
Max Gust Speed -    
Visibility 10 miles    
Events      
Averages and records for this station are not official NWS values.
T = Trace of Precipitation, MM = Missing Value Source: NWS Daily Summary

Daily Weather History Graph

Daily Weather History Graph

Search for Another Location

Airport or City:

Trip Planner

Search our weather history database for the weather conditions in past years. The results will help you decide how hot, cold, wet, or windy it might be!

Date:

Astronomy

Mar. 27, 2013 Rise Set
Actual Time 6:56 AM CDT 7:18 PM CDT
Civil Twilight 6:32 AM CDT 7:42 PM CDT
Nautical Twilight 6:03 AM CDT 8:10 PM CDT
Astronomical Twilight 5:35 AM CDT 8:39 PM CDT
Moon 7:56 PM CDT (3/27) 6:50 AM CDT (3/27)
Length of Visible Light 13h 10m
Length of Day
12h 21m
Full, 100% of the Moon is Illuminated
Mar 27
Full
Apr 2
Last Quarter
Apr 10
New
Apr 18
First Quarter
Apr 25
Full

Hourly Weather History & Observations

Time (CDT) Temp. Windchill Dew Point Humidity Pressure Visibility Wind Dir Wind Speed Gust Speed Precip Events Conditions
12:53 AM 37.0 °F 34.5 °F 27.0 °F 67% 30.38 in 10.0 mi NE 3.5 mph - N/A   Clear
1:53 AM 33.1 °F - 27.0 °F 78% 30.38 in 10.0 mi Calm Calm - N/A   Clear
2:53 AM 30.9 °F - 26.1 °F 82% 30.37 in 10.0 mi Calm Calm - N/A   Clear
3:53 AM 30.0 °F - 26.1 °F 85% 30.37 in 10.0 mi Calm Calm - N/A   Clear
4:53 AM 30.0 °F - 27.0 °F 88% 30.37 in 10.0 mi Calm Calm - N/A   Clear
5:53 AM 28.9 °F - 26.1 °F 89% 30.38 in 10.0 mi Calm Calm - N/A   Clear
6:53 AM 28.9 °F - 26.1 °F 89% 30.40 in 10.0 mi Calm Calm - N/A   Unknown
7:53 AM 32.0 °F - 28.0 °F 85% 30.42 in 10.0 mi Calm Calm - N/A   Clear
8:53 AM 41.0 °F 39.0 °F 28.0 °F 60% 30.43 in 10.0 mi East 3.5 mph - N/A   Clear
9:53 AM 45.0 °F 41.2 °F 26.1 °F 48% 30.44 in 10.0 mi SSE 6.9 mph - N/A   Clear
10:53 AM 48.9 °F - 25.0 °F 39% 30.45 in 10.0 mi Calm Calm - N/A   Clear
11:53 AM 52.0 °F - 26.1 °F 37% 30.43 in 10.0 mi Variable 3.5 mph - N/A   Clear
12:53 PM 55.0 °F - 23.0 °F 29% 30.40 in 10.0 mi North 6.9 mph - N/A   Clear
1:53 PM 57.0 °F - 21.9 °F 26% 30.37 in 10.0 mi NNE 5.8 mph - N/A   Clear
2:53 PM 59.0 °F - 24.1 °F 26% 30.34 in 10.0 mi Calm Calm - N/A   Clear
3:53 PM 59.0 °F - 23.0 °F 25% 30.31 in 10.0 mi Variable 3.5 mph - N/A   Clear
4:53 PM 61.0 °F - 21.9 °F 22% 30.30 in 10.0 mi Calm Calm - N/A   Clear
5:53 PM 61.0 °F - 23.0 °F 23% 30.29 in 10.0 mi Calm Calm - N/A   Clear
6:53 PM 59.0 °F - 27.0 °F 29% 30.28 in 10.0 mi Calm Calm - N/A   Clear
7:53 PM 50.0 °F - 33.1 °F 52% 30.29 in 10.0 mi Calm Calm - N/A   Clear
8:53 PM 46.9 °F - 32.0 °F 56% 30.28 in 10.0 mi Calm Calm - N/A   Clear
9:53 PM 43.0 °F - 33.1 °F 68% 30.30 in 10.0 mi Calm Calm - N/A   Clear
10:53 PM 43.0 °F - 33.1 °F 68% 30.31 in 10.0 mi Calm Calm - N/A   Clear
11:53 PM 39.9 °F - 33.1 °F 77% 30.31 in 10.0 mi Calm Calm - N/A   Clear